DAL157 DGAA-KJFK

Flight info

Callsign DAL157
Flight time N/A
Altitude 38000
Route ACC UL433 TUSEK DCT PIVKI UR979 ANITI UR976 LUMPO/M083F380 DCT TEGTO DCT 25N040W 29N050W 3430N06000W DCT MARIG/N0474F380 DCT MOUGH Y495 CAMRN CAMRN5
Aircraft A339/H-SADE1E2E3GHIJ3J5M1P2RWXY/LB2D1

Departure

Time N/A
Airport Kotoka International Airport (DGAA)

Arrival

Time 2026-05-05 02:41
Airport John F. Kennedy International Airport (KJFK)
Time Latitude Longitude Altitude Speed Heading
2026-05-04 23:19 29.09173 -50.14788 37893 ft 457 kts 305°
2026-05-04 23:19 29.10999 -50.17723 37894 ft 457 kts 305°
2026-05-04 23:20 29.14694 -50.23674 37893 ft 458 kts 305°
2026-05-04 23:20 29.18350 -50.29578 37893 ft 457 kts 305°
2026-05-04 23:21 29.22018 -50.35512 37893 ft 457 kts 305°
2026-05-04 23:21 29.25681 -50.41447 37893 ft 457 kts 305°
2026-05-04 23:22 29.29345 -50.47391 37893 ft 458 kts 305°
2026-05-04 23:22 29.32997 -50.53326 37893 ft 457 kts 305°
2026-05-04 23:23 29.36671 -50.59304 37893 ft 458 kts 305°
2026-05-04 23:23 29.40336 -50.65278 37893 ft 457 kts 305°
2026-05-04 23:24 29.43979 -50.71224 37893 ft 458 kts 305°
2026-05-04 23:24 29.47633 -50.77196 37893 ft 458 kts 305°
2026-05-04 23:25 29.51282 -50.83168 37893 ft 457 kts 305°
2026-05-04 23:25 29.54919 -50.89129 37893 ft 458 kts 305°
2026-05-04 23:26 29.58555 -50.95099 37893 ft 457 kts 305°
2026-05-04 23:26 29.62207 -51.01104 37893 ft 457 kts 305°
2026-05-04 23:27 29.65840 -51.07084 37893 ft 458 kts 305°
2026-05-04 23:27 29.69453 -51.13042 37893 ft 457 kts 305°
2026-05-04 23:28 29.73099 -51.19062 37893 ft 457 kts 305°
2026-05-04 23:28 29.76719 -51.25048 37893 ft 457 kts 305°
2026-05-04 23:29 29.80335 -51.31035 37893 ft 458 kts 305°
2026-05-04 23:29 29.83966 -51.37059 37893 ft 457 kts 305°
2026-05-04 23:30 29.87589 -51.43076 37893 ft 457 kts 305°
2026-05-04 23:30 29.91192 -51.49068 37893 ft 457 kts 305°
2026-05-04 23:31 29.94810 -51.55095 37893 ft 457 kts 305°
2026-05-04 23:31 29.98423 -51.61123 37893 ft 457 kts 305°
2026-05-04 23:32 30.02030 -51.67151 37893 ft 457 kts 304°
2026-05-04 23:32 30.05643 -51.73196 37893 ft 457 kts 304°
2026-05-04 23:33 30.09253 -51.79246 37893 ft 457 kts 304°
2026-05-04 23:33 30.12844 -51.85273 37893 ft 458 kts 304°
2026-05-04 23:34 30.16431 -51.91303 37893 ft 457 kts 304°
2026-05-04 23:34 30.20033 -51.97366 37893 ft 458 kts 304°
2026-05-04 23:35 30.23621 -52.03415 37893 ft 458 kts 304°
2026-05-04 23:35 30.27211 -52.09477 37893 ft 457 kts 304°
2026-05-04 23:36 30.30794 -52.15536 37893 ft 458 kts 304°
2026-05-04 23:36 30.34390 -52.21625 37893 ft 458 kts 304°
2026-05-04 23:37 30.37960 -52.27680 37893 ft 457 kts 304°
2026-05-04 23:37 30.41563 -52.33801 37893 ft 458 kts 304°
2026-05-04 23:38 30.45131 -52.39871 37893 ft 458 kts 304°
2026-05-04 23:38 30.48698 -52.45949 37893 ft 458 kts 304°
2026-05-04 23:39 30.52267 -52.52039 37893 ft 458 kts 304°
2026-05-04 23:39 30.55823 -52.58118 37893 ft 458 kts 304°
2026-05-04 23:40 30.59401 -52.64242 37893 ft 458 kts 304°
2026-05-04 23:40 30.62954 -52.70333 37893 ft 457 kts 304°
2026-05-04 23:41 30.66518 -52.76452 37893 ft 457 kts 304°
2026-05-04 23:41 30.70058 -52.82539 37893 ft 458 kts 304°
2026-05-04 23:42 30.73613 -52.88661 37893 ft 458 kts 304°
2026-05-04 23:42 30.77173 -52.94804 37893 ft 457 kts 304°
2026-05-04 23:43 30.80715 -53.00922 37893 ft 457 kts 304°
2026-05-04 23:43 30.84261 -53.07058 37893 ft 458 kts 304°
2026-05-04 23:44 30.87792 -53.13177 37893 ft 458 kts 304°
2026-05-04 23:44 30.91349 -53.19351 37893 ft 458 kts 304°
2026-05-04 23:45 30.94872 -53.25474 37893 ft 458 kts 304°
2026-05-04 23:45 30.98415 -53.31643 37893 ft 458 kts 304°
2026-05-04 23:46 31.01935 -53.37782 37893 ft 458 kts 304°
2026-05-04 23:46 31.05464 -53.43946 37893 ft 457 kts 304°
2026-05-04 23:47 31.08997 -53.50127 37893 ft 457 kts 304°
2026-05-04 23:47 31.12515 -53.56291 37893 ft 457 kts 304°
2026-05-04 23:48 31.16015 -53.62434 37893 ft 457 kts 304°
2026-05-04 23:48 31.19531 -53.68614 37893 ft 457 kts 303°
2026-05-04 23:49 31.23064 -53.74833 37893 ft 457 kts 303°
2026-05-04 23:49 31.26554 -53.80985 37893 ft 458 kts 303°
2026-05-04 23:50 31.30057 -53.87174 37893 ft 457 kts 303°
2026-05-04 23:50 31.33579 -53.93402 37893 ft 457 kts 303°
2026-05-04 23:51 31.37060 -53.99570 37893 ft 457 kts 303°
2026-05-04 23:51 31.40560 -54.05780 37893 ft 457 kts 303°
2026-05-04 23:52 31.44060 -54.12000 37893 ft 458 kts 303°
2026-05-04 23:52 31.47556 -54.18224 37893 ft 457 kts 303°
2026-05-04 23:53 31.51052 -54.24457 37893 ft 458 kts 303°
2026-05-04 23:53 31.54539 -54.30684 37893 ft 458 kts 303°
2026-05-04 23:54 31.58024 -54.36920 37893 ft 458 kts 303°
2026-05-04 23:54 31.61505 -54.43156 37893 ft 458 kts 303°
2026-05-04 23:55 31.64992 -54.49413 37893 ft 458 kts 303°
2026-05-04 23:56 31.70188 -54.58758 37893 ft 458 kts 303°
2026-05-04 23:56 31.73664 -54.65021 37893 ft 457 kts 303°
2026-05-04 23:57 31.77133 -54.71283 37893 ft 457 kts 303°
2026-05-04 23:57 31.80585 -54.77523 37893 ft 458 kts 303°
2026-05-04 23:58 31.84044 -54.83786 37893 ft 458 kts 303°
2026-05-04 23:58 31.87500 -54.90055 37893 ft 457 kts 303°
2026-05-04 23:59 31.90955 -54.96331 37893 ft 458 kts 303°
2026-05-04 23:59 31.94407 -55.02612 37893 ft 457 kts 303°
2026-05-05 00:00 31.97864 -55.08913 37893 ft 457 kts 303°
2026-05-05 00:00 32.01310 -55.15206 37893 ft 458 kts 303°
2026-05-05 00:01 32.04747 -55.21489 37893 ft 458 kts 303°
2026-05-05 00:01 32.08173 -55.27766 37893 ft 458 kts 303°
2026-05-05 00:02 32.11612 -55.34076 37893 ft 457 kts 303°
2026-05-05 00:02 32.15044 -55.40384 37893 ft 458 kts 303°
2026-05-05 00:03 32.18478 -55.46706 37893 ft 458 kts 303°
2026-05-05 00:03 32.21906 -55.53027 37893 ft 458 kts 303°
2026-05-05 00:04 32.25327 -55.59346 37893 ft 457 kts 303°
2026-05-05 00:04 32.28761 -55.65700 37893 ft 457 kts 302°
2026-05-05 00:05 32.32175 -55.72027 37893 ft 458 kts 302°
2026-05-05 00:05 32.35586 -55.78357 37893 ft 458 kts 302°
2026-05-05 00:06 32.38998 -55.84704 37893 ft 458 kts 302°
2026-05-05 00:06 32.42403 -55.91045 37893 ft 458 kts 302°
2026-05-05 00:07 32.45811 -55.97405 37893 ft 457 kts 302°
2026-05-05 00:07 32.49209 -56.03756 37893 ft 457 kts 302°
2026-05-05 00:08 32.52600 -56.10103 37893 ft 457 kts 302°
2026-05-05 00:08 32.55994 -56.16469 37893 ft 458 kts 302°
2026-05-05 00:09 32.59380 -56.22829 37893 ft 457 kts 302°
2026-05-05 00:09 32.62753 -56.29176 37893 ft 458 kts 302°
2026-05-05 00:10 32.66152 -56.35582 37893 ft 458 kts 302°
2026-05-05 00:10 32.69521 -56.41945 37893 ft 457 kts 302°
2026-05-05 00:11 32.72900 -56.48334 37893 ft 458 kts 302°
2026-05-05 00:11 32.76290 -56.54758 37893 ft 458 kts 302°
2026-05-05 00:12 32.79643 -56.61122 37893 ft 458 kts 302°
2026-05-05 00:12 32.83024 -56.67550 37893 ft 457 kts 302°
2026-05-05 00:13 32.86370 -56.73922 37893 ft 458 kts 302°
2026-05-05 00:13 32.89733 -56.80338 37893 ft 457 kts 302°
2026-05-05 00:14 32.93093 -56.86758 37893 ft 458 kts 302°
2026-05-05 00:14 32.96432 -56.93151 37893 ft 457 kts 302°
2026-05-05 00:15 32.99790 -56.99590 37893 ft 458 kts 302°
2026-05-05 00:15 33.03134 -57.06015 37893 ft 458 kts 302°
2026-05-05 00:16 33.06471 -57.12436 37893 ft 457 kts 302°
2026-05-05 00:16 33.09815 -57.18882 37893 ft 458 kts 302°
2026-05-05 00:17 33.13171 -57.25365 37893 ft 458 kts 302°
2026-05-05 00:17 33.16504 -57.31812 37893 ft 457 kts 302°
2026-05-05 00:18 33.19825 -57.38249 37893 ft 457 kts 302°
2026-05-05 00:18 33.23150 -57.44704 37893 ft 457 kts 302°
2026-05-05 00:19 33.26465 -57.51150 37893 ft 458 kts 302°
2026-05-05 00:19 33.29795 -57.57639 37893 ft 458 kts 302°
2026-05-05 00:20 33.33125 -57.64137 37893 ft 458 kts 302°
2026-05-05 00:20 33.36434 -57.70609 37893 ft 458 kts 301°
2026-05-05 00:21 33.39742 -57.77087 37893 ft 458 kts 301°
2026-05-05 00:21 33.43046 -57.83570 37893 ft 457 kts 301°
2026-05-05 00:22 33.46346 -57.90056 37893 ft 458 kts 301°
2026-05-05 00:22 33.49649 -57.96561 37893 ft 457 kts 301°
2026-05-05 00:23 33.52955 -58.03083 37893 ft 457 kts 301°
2026-05-05 00:23 33.56242 -58.09579 37893 ft 457 kts 301°
2026-05-05 00:24 33.59536 -58.16101 37893 ft 457 kts 301°
2026-05-05 00:24 33.62822 -58.22618 37893 ft 457 kts 301°
2026-05-05 00:25 33.66099 -58.29130 37893 ft 457 kts 301°
2026-05-05 00:25 33.69398 -58.35696 37893 ft 458 kts 301°
2026-05-05 00:26 33.72675 -58.42231 37893 ft 458 kts 301°
2026-05-05 00:26 33.75940 -58.48753 37893 ft 458 kts 301°
2026-05-05 00:27 33.79221 -58.55322 37893 ft 458 kts 301°
2026-05-05 00:27 33.82496 -58.61887 37893 ft 457 kts 301°
2026-05-05 00:28 33.85757 -58.68439 37893 ft 458 kts 301°
2026-05-05 00:28 33.89014 -58.74994 37893 ft 458 kts 301°
2026-05-05 00:29 33.92265 -58.81547 37893 ft 457 kts 301°
2026-05-05 00:29 33.95519 -58.88120 37893 ft 458 kts 301°
2026-05-05 00:30 33.98780 -58.94718 37893 ft 458 kts 301°
2026-05-05 00:30 34.02013 -59.01272 37893 ft 458 kts 301°
2026-05-05 00:31 34.05249 -59.07845 37893 ft 458 kts 301°
2026-05-05 00:31 34.08495 -59.14449 37893 ft 458 kts 301°
2026-05-05 00:32 34.11739 -59.21064 37893 ft 457 kts 301°
2026-05-05 00:32 34.14956 -59.27633 37893 ft 458 kts 301°
2026-05-05 00:33 34.18180 -59.34230 37893 ft 458 kts 301°
2026-05-05 00:33 34.21411 -59.40853 37893 ft 458 kts 301°
2026-05-05 00:34 34.24627 -59.47458 37893 ft 458 kts 301°
2026-05-05 00:34 34.27851 -59.54092 37893 ft 458 kts 301°
2026-05-05 00:35 34.31066 -59.60718 37893 ft 458 kts 301°
2026-05-05 00:35 34.34282 -59.67362 37893 ft 458 kts 300°
2026-05-05 00:36 34.37475 -59.73967 37893 ft 458 kts 300°
2026-05-05 00:36 34.40683 -59.80618 37893 ft 458 kts 300°
2026-05-05 00:37 34.43874 -59.87245 37893 ft 457 kts 300°
2026-05-05 00:37 34.47068 -59.93890 37893 ft 458 kts 300°
2026-05-05 00:38 34.50256 -60.00544 37893 ft 458 kts 299°
2026-05-05 00:38 34.53280 -60.07318 37893 ft 457 kts 298°
2026-05-05 00:39 34.56264 -60.14142 37893 ft 458 kts 298°
2026-05-05 00:39 34.59237 -60.20924 37893 ft 458 kts 298°
2026-05-05 00:40 34.62224 -60.27731 37893 ft 458 kts 298°
2026-05-05 00:40 34.65213 -60.34550 37893 ft 457 kts 298°
2026-05-05 00:41 34.68187 -60.41343 37893 ft 458 kts 298°
2026-05-05 00:41 34.71173 -60.48179 37893 ft 457 kts 298°
2026-05-05 00:42 34.74129 -60.54958 37893 ft 457 kts 298°
2026-05-05 00:42 34.77101 -60.61787 37893 ft 458 kts 298°
2026-05-05 00:43 34.80074 -60.68632 37893 ft 458 kts 298°
2026-05-05 00:43 34.83039 -60.75473 37893 ft 457 kts 297°
2026-05-05 00:44 34.85992 -60.82301 37893 ft 457 kts 298°
2026-05-05 00:44 34.88956 -60.89166 37893 ft 457 kts 297°
2026-05-05 00:45 34.91900 -60.95999 37892 ft 457 kts 298°
2026-05-05 00:45 34.94846 -61.02851 37893 ft 457 kts 297°
2026-05-05 00:46 34.97797 -61.09727 37893 ft 457 kts 297°
2026-05-05 00:46 35.00729 -61.16576 37893 ft 458 kts 297°
2026-05-05 00:47 35.03659 -61.23431 37893 ft 458 kts 297°
2026-05-05 00:47 35.06589 -61.30303 37893 ft 458 kts 298°
2026-05-05 00:48 35.09523 -61.37194 37893 ft 457 kts 297°
2026-05-05 00:48 35.12442 -61.44068 37893 ft 457 kts 297°
2026-05-05 00:49 35.15353 -61.50936 37893 ft 457 kts 297°
2026-05-05 00:49 35.18282 -61.57859 37893 ft 458 kts 297°
2026-05-05 00:50 35.21198 -61.64769 37893 ft 458 kts 297°
2026-05-05 00:50 35.24104 -61.71668 37893 ft 458 kts 297°
2026-05-05 00:51 35.27004 -61.78564 37893 ft 458 kts 297°
2026-05-05 00:51 35.29903 -61.85477 37893 ft 458 kts 297°
2026-05-05 00:52 35.32813 -61.92427 37893 ft 458 kts 297°
2026-05-05 00:52 35.35707 -61.99354 37893 ft 458 kts 297°
2026-05-05 00:53 35.38594 -62.06280 37893 ft 458 kts 297°
2026-05-05 00:53 35.41478 -62.13210 37893 ft 458 kts 297°
2026-05-05 00:54 35.44342 -62.20110 37893 ft 458 kts 297°
2026-05-05 00:54 35.47223 -62.27064 37893 ft 458 kts 297°
2026-05-05 00:55 35.50098 -62.34017 37893 ft 458 kts 297°
2026-05-05 00:55 35.52977 -62.40994 37893 ft 458 kts 297°
2026-05-05 00:56 35.55846 -62.47963 37893 ft 458 kts 297°
2026-05-05 00:56 35.58711 -62.54938 37893 ft 458 kts 297°
2026-05-05 00:57 35.61572 -62.61915 37893 ft 458 kts 297°
2026-05-05 00:57 35.64424 -62.68890 37893 ft 458 kts 296°
2026-05-05 00:58 35.67264 -62.75845 37893 ft 458 kts 296°
2026-05-05 00:58 35.70114 -62.82842 37893 ft 458 kts 296°
2026-05-05 00:59 35.72955 -62.89830 37893 ft 458 kts 296°
2026-05-05 00:59 35.75777 -62.96788 37893 ft 458 kts 296°
2026-05-05 01:00 35.78623 -63.03818 37893 ft 458 kts 296°
2026-05-05 01:00 35.81445 -63.10807 37893 ft 458 kts 296°
2026-05-05 01:01 35.84273 -63.17824 37893 ft 458 kts 296°
2026-05-05 01:01 35.87098 -63.24850 37893 ft 458 kts 296°
2026-05-05 01:02 35.89910 -63.31856 37893 ft 458 kts 296°
2026-05-05 01:02 35.92728 -63.38895 37893 ft 458 kts 296°
2026-05-05 01:03 35.95536 -63.45923 37893 ft 458 kts 296°
2026-05-05 01:03 35.98351 -63.52983 37893 ft 458 kts 296°
2026-05-05 01:04 36.01149 -63.60015 37893 ft 458 kts 296°
2026-05-05 01:04 36.05340 -63.70581 37893 ft 458 kts 296°
2026-05-05 01:05 36.08141 -63.77660 37893 ft 458 kts 296°
2026-05-05 01:05 36.10919 -63.84697 37893 ft 458 kts 296°
2026-05-05 01:06 36.13692 -63.91738 37893 ft 458 kts 296°
2026-05-05 01:06 36.16478 -63.98825 37893 ft 458 kts 296°
2026-05-05 01:07 36.19256 -64.05910 37893 ft 458 kts 296°
2026-05-05 01:07 36.22007 -64.12941 37893 ft 458 kts 296°
2026-05-05 01:08 36.24779 -64.20039 37893 ft 458 kts 296°
2026-05-05 01:08 36.27553 -64.27161 37893 ft 458 kts 296°
2026-05-05 01:09 36.30300 -64.34229 37893 ft 458 kts 296°
2026-05-05 01:09 36.33056 -64.41333 37893 ft 458 kts 296°
2026-05-05 01:10 36.35807 -64.48441 37893 ft 458 kts 296°
2026-05-05 01:10 36.38541 -64.55521 37893 ft 458 kts 296°
2026-05-05 01:11 36.41285 -64.62645 37893 ft 458 kts 296°
2026-05-05 01:11 36.44026 -64.69777 37893 ft 457 kts 295°
2026-05-05 01:12 36.46746 -64.76868 37893 ft 458 kts 295°
2026-05-05 01:12 36.49477 -64.84005 37893 ft 458 kts 295°
2026-05-05 01:13 36.52206 -64.91152 37893 ft 458 kts 295°
2026-05-05 01:13 36.54916 -64.98268 37893 ft 458 kts 295°
2026-05-05 01:14 36.57624 -65.05392 37893 ft 458 kts 295°
2026-05-05 01:14 36.60343 -65.12562 37893 ft 458 kts 295°
2026-05-05 01:15 36.63035 -65.19677 37893 ft 457 kts 295°
2026-05-05 01:15 36.65730 -65.26816 37893 ft 458 kts 295°
2026-05-05 01:16 36.68438 -65.34005 37893 ft 458 kts 295°
2026-05-05 01:16 36.71128 -65.41164 37893 ft 458 kts 295°
2026-05-05 01:17 36.73819 -65.48345 37893 ft 458 kts 295°
2026-05-05 01:17 36.76508 -65.55533 37893 ft 458 kts 295°
2026-05-05 01:18 36.79186 -65.62708 37893 ft 458 kts 295°
2026-05-05 01:18 36.81853 -65.69873 37893 ft 458 kts 295°
2026-05-05 01:19 36.84536 -65.77095 37893 ft 458 kts 295°
2026-05-05 01:19 36.87203 -65.84293 37893 ft 458 kts 295°
2026-05-05 01:20 36.89864 -65.91489 37893 ft 457 kts 295°
2026-05-05 01:20 36.92519 -65.98689 37893 ft 458 kts 295°
2026-05-05 01:21 36.95159 -66.05861 37893 ft 458 kts 295°
2026-05-05 01:21 36.97807 -66.13074 37893 ft 458 kts 295°
2026-05-05 01:22 37.00470 -66.20344 37893 ft 458 kts 295°
2026-05-05 01:22 37.03098 -66.27537 37893 ft 458 kts 295°
2026-05-05 01:23 37.05744 -66.34794 37893 ft 457 kts 295°
2026-05-05 01:23 37.08360 -66.41988 37893 ft 458 kts 295°
2026-05-05 01:24 37.10991 -66.49239 37893 ft 458 kts 295°
2026-05-05 01:24 37.13618 -66.56496 37892 ft 458 kts 295°
2026-05-05 01:25 37.16236 -66.63747 37891 ft 458 kts 295°
2026-05-05 01:25 37.18864 -66.71041 37891 ft 458 kts 294°
2026-05-05 01:26 37.21463 -66.78272 37892 ft 458 kts 294°
2026-05-05 01:26 37.24075 -66.85555 37892 ft 458 kts 294°
2026-05-05 01:27 37.26680 -66.92840 37892 ft 458 kts 294°
2026-05-05 01:27 37.29267 -67.00088 37892 ft 457 kts 294°
2026-05-05 01:28 37.31855 -67.07358 37892 ft 458 kts 294°
2026-05-05 01:28 37.34442 -67.14644 37893 ft 458 kts 294°
2026-05-05 01:29 37.37034 -67.21959 37893 ft 458 kts 294°
2026-05-05 01:29 37.39609 -67.29247 37893 ft 458 kts 294°
2026-05-05 01:30 37.42188 -67.36563 37893 ft 458 kts 294°
2026-05-05 01:30 37.44765 -67.43892 37893 ft 458 kts 294°
2026-05-05 01:31 37.47322 -67.51176 37893 ft 458 kts 294°
2026-05-05 01:31 37.49896 -67.58534 37893 ft 458 kts 294°
2026-05-05 01:32 37.52447 -67.65840 37893 ft 458 kts 294°
2026-05-05 01:32 37.55008 -67.73193 37893 ft 458 kts 294°
2026-05-05 01:33 37.57548 -67.80506 37893 ft 458 kts 294°
2026-05-05 01:33 37.60084 -67.87824 37893 ft 458 kts 294°
2026-05-05 01:34 37.62631 -67.95193 37893 ft 458 kts 294°
2026-05-05 01:34 37.65158 -68.02519 37893 ft 458 kts 294°
2026-05-05 01:35 37.67682 -68.09857 37893 ft 458 kts 294°
2026-05-05 01:35 37.70206 -68.17214 37893 ft 458 kts 294°
2026-05-05 01:36 37.72727 -68.24579 37893 ft 458 kts 294°
2026-05-05 01:36 37.75247 -68.31962 37893 ft 457 kts 294°
2026-05-05 01:37 37.77743 -68.39288 37893 ft 458 kts 294°
2026-05-05 01:37 37.80262 -68.46706 37893 ft 458 kts 294°
2026-05-05 01:38 37.82751 -68.54048 37893 ft 458 kts 294°
2026-05-05 01:38 37.85262 -68.61480 37893 ft 458 kts 294°
2026-05-05 01:39 37.87740 -68.68829 37893 ft 457 kts 293°
2026-05-05 01:39 37.90234 -68.76245 37893 ft 458 kts 293°
2026-05-05 01:40 37.92717 -68.83648 37892 ft 458 kts 293°
2026-05-05 01:40 37.95192 -68.91042 37893 ft 458 kts 293°
2026-05-05 01:41 37.97670 -68.98467 37893 ft 458 kts 293°
2026-05-05 01:41 38.00130 -69.05858 37893 ft 458 kts 293°
2026-05-05 01:42 38.02598 -69.13292 37893 ft 458 kts 293°
2026-05-05 01:42 38.05067 -69.20747 37893 ft 458 kts 293°
2026-05-05 01:43 38.07517 -69.28164 37893 ft 458 kts 293°
2026-05-05 01:43 38.09963 -69.35586 37893 ft 458 kts 293°
2026-05-05 01:44 38.12410 -69.43030 37893 ft 458 kts 293°
2026-05-05 01:44 38.14863 -69.50516 37893 ft 458 kts 293°
2026-05-05 01:45 38.17288 -69.57931 37893 ft 458 kts 293°
2026-05-05 01:45 38.19730 -69.65421 37893 ft 458 kts 292°
2026-05-05 01:46 38.22161 -69.72897 37893 ft 458 kts 292°
2026-05-05 01:46 38.24586 -69.80366 37893 ft 458 kts 292°
2026-05-05 01:47 38.27004 -69.87838 37893 ft 458 kts 292°
2026-05-05 01:47 38.29413 -69.95300 37893 ft 458 kts 292°
2026-05-05 01:48 38.31817 -70.02771 37892 ft 458 kts 292°
2026-05-05 01:48 38.34362 -70.10213 37893 ft 458 kts 295°
2026-05-05 01:49 38.37006 -70.17549 37893 ft 458 kts 295°
2026-05-05 01:49 38.39668 -70.24947 37893 ft 458 kts 295°
2026-05-05 01:50 38.42305 -70.32301 37893 ft 458 kts 295°
2026-05-05 01:50 38.44938 -70.39665 37893 ft 458 kts 295°
2026-05-05 01:51 38.47567 -70.47039 37893 ft 458 kts 295°
2026-05-05 01:51 38.50192 -70.54419 37893 ft 458 kts 295°
2026-05-05 01:52 38.52816 -70.61813 37893 ft 458 kts 295°
2026-05-05 01:52 38.55442 -70.69236 37893 ft 458 kts 294°
2026-05-05 01:53 38.58050 -70.76623 37893 ft 458 kts 294°
2026-05-05 01:53 38.60651 -70.84010 37646 ft 452 kts 294°
2026-05-05 01:54 38.61926 -70.87639 37184 ft 451 kts 294°
2026-05-05 01:54 38.63204 -70.91281 36719 ft 449 kts 294°
2026-05-05 01:54 38.64477 -70.94913 36306 ft 445 kts 294°
2026-05-05 01:54 38.65732 -70.98498 35786 ft 443 kts 295°
2026-05-05 01:55 38.66985 -71.02082 35064 ft 443 kts 295°
2026-05-05 01:55 38.68244 -71.05687 34248 ft 445 kts 295°
2026-05-05 01:55 38.69494 -71.09270 33406 ft 446 kts 295°
2026-05-05 01:55 38.70765 -71.12913 32532 ft 449 kts 295°
2026-05-05 01:56 38.72026 -71.16531 31591 ft 452 kts 294°
2026-05-05 01:56 38.73322 -71.20254 30560 ft 457 kts 294°
2026-05-05 01:56 38.74607 -71.23953 29502 ft 463 kts 294°
2026-05-05 01:56 38.75919 -71.27742 28406 ft 468 kts 294°
2026-05-05 01:57 38.77221 -71.31509 27293 ft 473 kts 294°
2026-05-05 01:57 38.78567 -71.35404 26175 ft 477 kts 294°
2026-05-05 01:57 38.79886 -71.39226 25431 ft 473 kts 295°
2026-05-05 01:57 38.81209 -71.43066 24838 ft 468 kts 294°
2026-05-05 01:58 38.82515 -71.46857 24275 ft 465 kts 295°
2026-05-05 01:58 38.83818 -71.50642 23660 ft 463 kts 295°
2026-05-05 01:58 38.85111 -71.54406 23047 ft 460 kts 295°
2026-05-05 01:58 38.86391 -71.58141 22465 ft 458 kts 295°
2026-05-05 01:59 38.87662 -71.61853 21897 ft 455 kts 295°
2026-05-05 01:59 38.88942 -71.65594 21354 ft 451 kts 295°
2026-05-05 01:59 38.90192 -71.69252 20791 ft 449 kts 295°
2026-05-05 01:59 38.91436 -71.72894 20235 ft 446 kts 295°
2026-05-05 02:00 38.92678 -71.76533 19703 ft 443 kts 295°
2026-05-05 02:00 38.93908 -71.80144 19154 ft 440 kts 295°
2026-05-05 02:00 38.95121 -71.83707 18620 ft 437 kts 296°
2026-05-05 02:00 38.96336 -71.87287 18085 ft 435 kts 296°
2026-05-05 02:01 38.97536 -71.90791 17569 ft 431 kts 298°
2026-05-05 02:01 38.99074 -71.94083 17008 ft 425 kts 309°
2026-05-05 02:01 39.01018 -71.96897 16482 ft 418 kts 320°
2026-05-05 02:01 39.03237 -71.99316 15950 ft 414 kts 324°
2026-05-05 02:02 39.05459 -72.01595 15432 ft 412 kts 325°
2026-05-05 02:02 39.07724 -72.03906 14895 ft 411 kts 325°
2026-05-05 02:02 39.09941 -72.06191 14367 ft 410 kts 325°
2026-05-05 02:02 39.12159 -72.08501 14003 ft 406 kts 325°
2026-05-05 02:03 39.14368 -72.10811 13936 ft 409 kts 325°
2026-05-05 02:03 39.16571 -72.13120 13935 ft 410 kts 324°
2026-05-05 02:03 39.18807 -72.15467 13935 ft 410 kts 324°
2026-05-05 02:03 39.21005 -72.17781 13935 ft 410 kts 324°
2026-05-05 02:04 39.23232 -72.20126 13936 ft 410 kts 324°
2026-05-05 02:04 39.25436 -72.22450 13936 ft 411 kts 324°
2026-05-05 02:04 39.27660 -72.24796 13936 ft 410 kts 324°
2026-05-05 02:04 39.29866 -72.27121 13936 ft 411 kts 324°
2026-05-05 02:05 39.32070 -72.29448 13936 ft 410 kts 324°
2026-05-05 02:05 39.34276 -72.31780 13936 ft 410 kts 324°
2026-05-05 02:05 39.36502 -72.34133 13936 ft 410 kts 325°
2026-05-05 02:05 39.38712 -72.36476 13936 ft 410 kts 324°
2026-05-05 02:06 39.40929 -72.38821 13936 ft 410 kts 324°
2026-05-05 02:06 39.43115 -72.41140 13936 ft 410 kts 325°
2026-05-05 02:06 39.45317 -72.43477 13936 ft 410 kts 324°
2026-05-05 02:06 39.47532 -72.45830 13936 ft 411 kts 325°
2026-05-05 02:07 39.49742 -72.48178 13936 ft 411 kts 324°
2026-05-05 02:07 39.51955 -72.50532 13936 ft 410 kts 324°
2026-05-05 02:07 39.54140 -72.52859 13936 ft 410 kts 324°
2026-05-05 02:07 39.56364 -72.55229 13936 ft 411 kts 324°
2026-05-05 02:08 39.58553 -72.57564 13936 ft 410 kts 324°
2026-05-05 02:08 39.60778 -72.59938 13937 ft 410 kts 324°
2026-05-05 02:08 39.62981 -72.62296 13937 ft 410 kts 324°
2026-05-05 02:08 39.65172 -72.64637 13936 ft 410 kts 324°
2026-05-05 02:09 39.67389 -72.67007 13934 ft 411 kts 324°
2026-05-05 02:09 39.69597 -72.69370 13935 ft 411 kts 324°
2026-05-05 02:09 39.71787 -72.71719 13935 ft 411 kts 324°
2026-05-05 02:09 39.74014 -72.74110 13936 ft 410 kts 324°
2026-05-05 02:10 39.76203 -72.76460 13936 ft 411 kts 324°
2026-05-05 02:10 39.78406 -72.78831 13936 ft 411 kts 323°
2026-05-05 02:10 39.80390 -72.81518 13925 ft 418 kts 308°
2026-05-05 02:10 39.81727 -72.84912 13932 ft 424 kts 290°
2026-05-05 02:11 39.82285 -72.88660 13935 ft 428 kts 274°
2026-05-05 02:11 39.82214 -72.92520 13943 ft 427 kts 268°
2026-05-05 02:11 39.82054 -72.96401 13940 ft 427 kts 267°
2026-05-05 02:11 39.81901 -73.00259 13938 ft 428 kts 268°
2026-05-05 02:12 39.81769 -73.04083 13937 ft 428 kts 268°
2026-05-05 02:12 39.81539 -73.11831 13936 ft 428 kts 269°
2026-05-05 02:12 39.81429 -73.15695 13937 ft 427 kts 269°
2026-05-05 02:13 39.81319 -73.19553 13936 ft 428 kts 269°
2026-05-05 02:13 39.81305 -73.23412 13931 ft 427 kts 275°
2026-05-05 02:13 39.81754 -73.27235 13933 ft 425 kts 285°
2026-05-05 02:13 39.82666 -73.30844 13935 ft 422 kts 295°
2026-05-05 02:14 39.83853 -73.34338 13930 ft 420 kts 297°
2026-05-05 02:14 39.85063 -73.37741 13662 ft 416 kts 298°
2026-05-05 02:14 39.86285 -73.41173 13117 ft 416 kts 297°
2026-05-05 02:14 39.87486 -73.44585 12586 ft 415 kts 297°
2026-05-05 02:15 39.88677 -73.48003 12098 ft 413 kts 297°
2026-05-05 02:15 39.89849 -73.51394 11491 ft 409 kts 297°
2026-05-05 02:15 39.91013 -73.54770 10903 ft 405 kts 297°
2026-05-05 02:15 39.92158 -73.58106 10362 ft 401 kts 297°
2026-05-05 02:16 39.93270 -73.61351 10193 ft 390 kts 297°
2026-05-05 02:16 39.94364 -73.64542 10023 ft 380 kts 297°
2026-05-05 02:16 39.95430 -73.67656 9854 ft 371 kts 297°
2026-05-05 02:16 39.96464 -73.70680 9661 ft 360 kts 297°
2026-05-05 02:17 39.97478 -73.73650 9474 ft 349 kts 297°
2026-05-05 02:17 39.98453 -73.76511 9327 ft 340 kts 297°
2026-05-05 02:17 39.99405 -73.79291 9188 ft 332 kts 299°
2026-05-05 02:17 40.00632 -73.81772 9021 ft 316 kts 318°
2026-05-05 02:18 40.02275 -73.83517 8789 ft 296 kts 336°
2026-05-05 02:18 40.04135 -73.84515 8433 ft 283 kts 352°
2026-05-05 02:18 40.06045 -73.84788 8189 ft 267 kts
2026-05-05 02:18 40.07839 -73.84475 8010 ft 253 kts 16°
2026-05-05 02:19 40.09522 -73.83987 7843 ft 243 kts 17°
2026-05-05 02:19 40.11157 -73.83497 7648 ft 236 kts 17°
2026-05-05 02:19 40.12745 -73.83021 7468 ft 231 kts 17°
2026-05-05 02:19 40.14303 -73.82561 7298 ft 221 kts 17°
2026-05-05 02:20 40.15776 -73.82130 7120 ft 211 kts 16°
2026-05-05 02:20 40.17162 -73.81728 6958 ft 201 kts 16°
2026-05-05 02:20 40.18516 -73.81334 6812 ft 193 kts 16°
2026-05-05 02:20 40.19815 -73.80959 6671 ft 185 kts 16°
2026-05-05 02:21 40.21051 -73.80600 6523 ft 177 kts 16°
2026-05-05 02:21 40.22234 -73.80257 6377 ft 170 kts 16°
2026-05-05 02:21 40.23323 -73.79797 6219 ft 160 kts 34°
2026-05-05 02:21 40.24176 -73.78870 6009 ft 156 kts 45°
2026-05-05 02:22 40.24927 -73.77868 5759 ft 156 kts 47°
2026-05-05 02:22 40.25678 -73.76832 5492 ft 156 kts 47°
2026-05-05 02:22 40.26430 -73.75791 5235 ft 156 kts 47°
2026-05-05 02:22 40.27187 -73.74743 4972 ft 157 kts 47°
2026-05-05 02:23 40.27940 -73.73708 4721 ft 157 kts 47°
2026-05-05 02:23 40.28696 -73.72669 4464 ft 157 kts 47°
2026-05-05 02:23 40.29454 -73.71629 4210 ft 158 kts 47°
2026-05-05 02:23 40.30215 -73.70590 3984 ft 156 kts 47°
2026-05-05 02:24 40.30997 -73.69525 3964 ft 170 kts 47°
2026-05-05 02:24 40.31834 -73.68379 3955 ft 175 kts 47°
2026-05-05 02:24 40.32681 -73.67220 3942 ft 175 kts 47°
2026-05-05 02:24 40.33532 -73.66056 3937 ft 176 kts 47°
2026-05-05 02:25 40.34381 -73.64895 3935 ft 176 kts 47°
2026-05-05 02:25 40.35227 -73.63737 3935 ft 176 kts 47°
2026-05-05 02:25 40.36077 -73.62574 3933 ft 176 kts 47°
2026-05-05 02:25 40.36918 -73.61420 3935 ft 176 kts 47°
2026-05-05 02:26 40.37773 -73.60252 3933 ft 176 kts 47°
2026-05-05 02:26 40.38618 -73.59096 3933 ft 176 kts 47°
2026-05-05 02:26 40.39469 -73.57933 3934 ft 175 kts 47°
2026-05-05 02:26 40.40315 -73.56779 3934 ft 176 kts 47°
2026-05-05 02:27 40.41172 -73.55608 3933 ft 175 kts 47°
2026-05-05 02:27 40.42014 -73.54459 3933 ft 176 kts 47°
2026-05-05 02:27 40.42868 -73.53290 3935 ft 176 kts 47°
2026-05-05 02:27 40.43718 -73.52128 3934 ft 175 kts 47°
2026-05-05 02:28 40.44570 -73.50966 3934 ft 175 kts 47°
2026-05-05 02:28 40.45415 -73.49812 3934 ft 176 kts 47°
2026-05-05 02:28 40.46259 -73.48656 3934 ft 176 kts 47°
2026-05-05 02:28 40.47125 -73.47504 3933 ft 176 kts 38°
2026-05-05 02:29 40.48266 -73.46955 3931 ft 179 kts
2026-05-05 02:29 40.49531 -73.46960 3939 ft 180 kts 358°
2026-05-05 02:29 40.50798 -73.47068 3936 ft 180 kts 358°
2026-05-05 02:29 40.52055 -73.47195 3935 ft 180 kts 357°
2026-05-05 02:30 40.53303 -73.47325 3935 ft 180 kts 357°
2026-05-05 02:30 40.54554 -73.47453 3935 ft 180 kts 357°
2026-05-05 02:30 40.55819 -73.47584 3935 ft 180 kts 357°
2026-05-05 02:30 40.57082 -73.47716 3936 ft 180 kts 357°
2026-05-05 02:31 40.58364 -73.47850 3936 ft 180 kts 357°
2026-05-05 02:31 40.59608 -73.47982 3936 ft 180 kts 357°
2026-05-05 02:31 40.60863 -73.48116 3937 ft 180 kts 357°
2026-05-05 02:31 40.62122 -73.48249 3937 ft 180 kts 357°
2026-05-05 02:32 40.63379 -73.48380 3937 ft 180 kts 357°
2026-05-05 02:32 40.64634 -73.48512 3938 ft 180 kts 357°
2026-05-05 02:32 40.65902 -73.48644 3942 ft 184 kts 357°
2026-05-05 02:32 40.67260 -73.48779 3964 ft 211 kts 357°
2026-05-05 02:33 40.68795 -73.48927 3947 ft 226 kts 357°
2026-05-05 02:33 40.70391 -73.49077 3941 ft 227 kts 357°
2026-05-05 02:33 40.71966 -73.49226 3941 ft 228 kts 357°
2026-05-05 02:33 40.73544 -73.49377 3941 ft 228 kts 357°
2026-05-05 02:34 40.75133 -73.49526 3941 ft 228 kts 357°
2026-05-05 02:34 40.76722 -73.49676 3940 ft 227 kts 357°
2026-05-05 02:34 40.78249 -73.49842 3864 ft 225 kts 351°
2026-05-05 02:34 40.79654 -73.50768 3550 ft 231 kts 310°
2026-05-05 02:35 40.80272 -73.52671 3343 ft 228 kts 272°
2026-05-05 02:35 40.80187 -73.54759 3233 ft 222 kts 263°
2026-05-05 02:35 40.80030 -73.56750 3124 ft 216 kts 264°
2026-05-05 02:35 40.79907 -73.58710 3014 ft 211 kts 265°
2026-05-05 02:36 40.79818 -73.60638 2904 ft 205 kts 266°
2026-05-05 02:36 40.79726 -73.62478 2794 ft 200 kts 257°
2026-05-05 02:36 40.79131 -73.64030 2670 ft 188 kts 221°
2026-05-05 02:36 40.78093 -73.64979 2500 ft 176 kts 208°
2026-05-05 02:37 40.77049 -73.65760 2323 ft 167 kts 207°
2026-05-05 02:37 40.76056 -73.66499 2144 ft 159 kts 207°
2026-05-05 02:37 40.75106 -73.67220 1962 ft 154 kts 207°
2026-05-05 02:37 40.74187 -73.67931 1936 ft 149 kts 208°
2026-05-05 02:38 40.73289 -73.68632 1902 ft 149 kts 208°
2026-05-05 02:38 40.72398 -73.69329 1722 ft 148 kts 208°
2026-05-05 02:38 40.71505 -73.70028 1535 ft 147 kts 208°
2026-05-05 02:38 40.70626 -73.70717 1350 ft 146 kts 208°
2026-05-05 02:39 40.69748 -73.71403 1161 ft 145 kts 208°
2026-05-05 02:39 40.68879 -73.72083 978 ft 146 kts 207°
2026-05-05 02:39 40.68006 -73.72765 792 ft 146 kts 207°
2026-05-05 02:39 40.67132 -73.73447 614 ft 145 kts 208°
2026-05-05 02:40 40.66269 -73.74123 432 ft 144 kts 208°
2026-05-05 02:40 40.65400 -73.74803 242 ft 143 kts 208°
2026-05-05 02:40 40.64532 -73.75455 81 ft 142 kts 210°
2026-05-05 02:40 40.63721 -73.76113 28 ft 121 kts 211°
2026-05-05 02:41 40.63209 -73.76502 26 ft 44 kts 218°
2026-05-05 02:41 40.63034 -73.76689 25 ft 28 kts 231°
2026-05-05 02:41 40.62992 -73.76757 25 ft 0 kts 232°
2026-05-05 02:41 40.62986 -73.76767 25 ft 3 kts 233°
2026-05-05 02:42 40.62967 -73.76806 25 ft 6 kts 238°
2026-05-05 02:42 40.62961 -73.76819 25 ft 3 kts 239°
2026-05-05 02:42 40.62951 -73.76842 25 ft 1 kts 241°
2026-05-05 02:42 40.62941 -73.76870 25 ft 5 kts 249°
2026-05-05 02:43 40.62933 -73.76935 25 ft 9 kts 275°
2026-05-05 02:43 40.62949 -73.77003 25 ft 1 kts 292°
2026-05-05 02:43 40.62960 -73.77033 25 ft 5 kts 296°
2026-05-05 02:43 40.62985 -73.77093 25 ft 9 kts 300°
2026-05-05 02:44 40.63023 -73.77180 25 ft 12 kts 301°
2026-05-05 02:44 40.63073 -73.77287 25 ft 14 kts 301°
2026-05-05 02:44 40.63129 -73.77412 25 ft 16 kts 301°
2026-05-05 02:44 40.63190 -73.77545 25 ft 17 kts 301°
2026-05-05 02:45 40.63252 -73.77682 25 ft 17 kts 300°
2026-05-05 02:45 40.63316 -73.77808 25 ft 14 kts 324°
2026-05-05 02:45 40.63412 -73.77782 25 ft 15 kts 30°
2026-05-05 02:45 40.63474 -73.77735 26 ft 4 kts 24°
2026-05-05 02:46 40.63505 -73.77747 26 ft 6 kts 322°
2026-05-05 02:46 40.63538 -73.77797 26 ft 8 kts 306°
2026-05-05 02:46 40.63569 -73.77869 26 ft 9 kts 292°
2026-05-05 02:46 40.63584 -73.77965 26 ft 11 kts 268°
2026-05-05 02:47 40.63583 -73.77994 26 ft 0 kts 266°
2026-05-05 02:47 40.63583 -73.77999 26 ft 0 kts 268°